Starlink 30113

operational
NORAD ID: 56291 Int'l Des: 2023-056 Owner: SPXS Country: US Constellation: starlink
LEOCIRCULAR

Über Starlink 30113

Beschreibung wird geladen...

Live-Position

3D-Globus wird geladen...

Nächste Überflüge

Höhenverlauf

Altitude vs Time

uPlot chart will show altitude changes over time

Zweizeiliger Elementsatz

1 56291U 23056F 25258.50213338 .00000141 00000-0 25527-4 0 9997
2 56291 43.0023 81.9841 0001223 262.0430 98.0274 15.02537148133679
Epoch: 15. Sept. 2025 • Age: 14 hours

Aktueller Status

Höhe 571.0 km
Geschwindigkeit 7.58 km/s
Subsatellitenpunkt -41.67°S, 54.03°W
Startdatum 19. Apr. 2023
Alter 2.4 years
Typ internet

Technische Details

Klassifizierung Payload
Masse 730.00 kg
Trockenmasse 700.00 kg
Gesamtmasse 730.00 kg
Länge 0.30 m
Durchmesser 4.10 m
Spannweite 29.00 m
Form Box + pan
Hersteller SPXS
Bus-Typ Starlink V2M
Phasenstatus In Orbit
Besitzer/Staat SPXS/US

Große Konstellationen

Loading constellations...